マクノート彗星

442P/McNaught (2000)

English version
Home page
Updated on May 29, 2022

---------------------------------------------------------------------

・ プロフィール

・ 軌道要素

                    Epoch = 2000 Apr.  6.0 TT
     T = 2000 Apr. 17.95027 TT        Peri. = 293.52286
     e = 0.5278906                    Node  =  54.22483 2000.0
     q = 2.4125604 AU                 Incl. =   6.93629
       a =  5.1101719 AU   n = 0.08531999   P =  11.55 years

・ 光度変化

        m1 = 13.5 + 5 logΔ + 10.0 log r

---------------------------------------------------------------------

軌道要素は、CBET 5115に掲載されたものです。
光度グラフはComet for Windowsで作成したものです。

---------------------------------------------------------------------

Copyright(C) Seiichi Yoshida (comet@aerith.net). All rights reserved.